Wind_Speed
4 4 4 7 11 14 11 11 15 16 10 7 5 6 7 8 9 9 12 10 4 6 9 11 16 17 16 18 17 17 14 13 14 13 13 13 13 13 14 15 16 17 18 18 22 23 23 26 30 33 34 34 34 34 36 38 41 43 43 43 42 42 43 43 43 42 40 39 38 37 39 40 40 40 40 38 38 37 36 35 34 35 33 32 31 30
3 6 9 13 16 14 10 10 12 12 9 9 8 8 9 8 12 13 12 12 5 4 9 10 16 19 16 16 15 14 15 16 16 16 17 16 14 13 14 18 18 16 16 17 18 16 18 23 26 29 32 33 34 36 39 42 43 43 43 44 44 43 45 46 46 45 44 44 43 42 43 42 41 41 41 40 40 38 37 35 35 35 34 32 32 31
3 7 13 16 14 8 4 4 7 9 9 9 6 7 8 6 11 12 10 13 6 4 8 10 14 18 15 15 14 13 16 18 17 17 19 17 14 13 15 17 17 16 16 18 19 14 12 18 23 26 29 34 38 39 41 42 41 41 42 43 43 45 47 47 47 47 46 45 44 43 41 41 39 39 40 39 39 38 37 36 35 35 35 33 33 32
6 7 13 15 8 6 7 5 5 5 5 7 6 6 8 7 8 9 7 8 5 4 6 9 12 14 12 12 11 13 17 18 16 17 17 14 13 16 17 16 16 18 18 18 20 14 8 12 18 23 28 33 34 34 36 37 38 41 43 44 44 46 47 47 47 47 45 42 40 38 36 37 36 35 36 35 35 37 36 36 35 35 35 35 34 33
11 6 8 10 8 9 11 9 6 4 7 9 8 7 10 12 12 12 7 6 6 5 5 7 13 13 10 13 13 11 15 16 14 15 16 15 14 16 16 16 17 20 20 18 19 14 7 9 14 21 26 29 30 32 36 40 41 43 43 44 44 45 46 46 46 44 42 39 37 33 30 30 30 29 31 32 34 37 37 38 38 37 37 36 35 34
12 6 5 6 8 11 11 9 7 7 10 10 8 12 18 17 14 14 10 8 7 6 3 2 10 11 6 11 12 8 9 12 11 12 17 17 16 15 15 17 19 19 19 18 18 13 8 8 12 18 22 26 29 34 38 41 41 41 41 43 43 43 43 43 43 43 42 40 39 36 33 32 30 28 33 39 40 41 41 41 40 39 37 36 36 35
6 7 8 9 9 11 10 7 7 10 10 11 7 14 18 14 11 12 9 5 3 6 3 3 3 10 5 6 9 7 8 11 10 11 16 17 15 14 14 17 17 16 16 15 14 11 8 9 9 13 21 27 30 32 34 35 36 37 39 41 41 42 42 41 42 43 42 41 41 41 39 38 36 34 37 40 39 40 41 39 39 39 38 37 36 36
4 6 9 11 9 8 7 7 9 12 8 8 4 10 11 10 9 7 6 5 4 4 4 4 5 8 13 7 9 11 11 11 12 14 16 16 15 14 16 17 16 15 15 12 11 10 9 10 11 14 22 28 28 28 30 32 35 37 39 41 41 41 41 41 42 43 43 43 42 42 40 39 40 38 36 34 33 36 38 38 38 39 39 38 37 36
4 5 9 9 7 6 7 10 10 12 9 7 4 7 6 6 6 4 5 5 1 5 5 4 7 3 15 7 8 10 10 10 14 17 18 16 16 16 17 17 16 17 15 11 10 10 9 9 12 16 20 24 25 27 32 35 36 36 37 39 39 39 40 41 42 44 44 44 44 43 41 38 38 36 32 31 32 34 36 37 38 39 39 39 37 36
1 3 5 7 6 7 8 8 8 13 10 4 6 5 4 3 2 4 3 2 2 6 6 5 7 3 14 8 5 4 6 9 13 14 15 15 15 15 15 15 15 15 14 9 8 8 7 9 12 15 17 21 24 27 30 31 32 34 35 37 38 38 39 40 43 44 44 44 43 42 42 39 36 33 30 29 31 33 35 37 37 38 39 39 38 37
4 0 2 4 5 5 4 2 4 9 7 1 4 2 5 5 4 4 1 4 2 9 6 9 11 6 8 6 4 4 5 6 8 9 10 12 13 14 13 13 14 14 13 7 4 4 5 6 10 14 16 19 22 23 26 28 31 33 35 37 38 38 39 40 42 44 45 45 44 43 43 41 37 34 31 31 32 33 35 36 37 37 38 38 39 38
6 2 3 4 3 4 4 2 1 0 1 2 2 1 3 5 4 5 4 4 2 9 5 11 13 10 8 6 1 4 6 3 6 8 10 12 13 14 13 13 13 12 10 5 4 5 6 6 9 12 14 18 20 23 26 28 31 32 34 36 37 36 38 40 42 45 46 45 45 44 43 41 39 36 36 36 36 36 37 37 35 35 36 36 38 39
5 7 7 3 2 6 5 3 3 5 2 4 4 3 0 4 3 3 3 1 4 9 6 8 9 8 11 7 3 9 11 8 9 9 11 13 13 14 14 12 11 10 7 4 5 6 7 7 9 9 12 18 21 24 27 29 31 32 34 36 37 37 38 40 42 44 45 46 46 44 42 41 39 38 39 39 38 39 39 38 37 37 38 38 39 41
5 6 4 3 3 5 8 6 3 2 4 6 5 5 5 3 3 4 4 2 5 8 6 5 6 5 8 5 6 11 12 10 7 7 10 11 11 12 12 10 10 9 5 5 6 6 8 9 9 9 12 17 20 24 28 30 32 33 34 36 37 38 39 41 42 43 44 46 46 44 42 41 39 39 40 40 40 40 40 40 41 42 42 42 44 45
4 9 3 7 3 5 10 12 11 5 4 6 5 5 6 6 4 4 4 6 7 6 5 1 4 5 4 3 7 9 8 8 6 7 8 9 10 11 11 11 12 10 5 3 6 7 9 9 9 9 13 17 21 25 28 30 32 34 35 38 38 39 40 41 42 43 46 47 45 44 42 41 41 41 41 41 41 41 41 42 43 44 44 45 46 46
4 9 5 4 3 8 11 12 9 4 1 3 4 4 5 6 5 4 7 8 5 3 3 3 4 6 5 6 7 5 6 7 8 8 7 8 11 10 10 12 11 8 5 5 6 8 8 8 8 9 13 17 20 24 28 31 34 36 37 39 41 42 42 43 44 45 47 46 44 44 44 43 43 42 42 42 42 42 43 43 44 45 45 45 45 45
5 7 4 1 3 7 8 6 6 5 3 2 3 4 4 3 6 5 8 5 2 5 6 5 7 6 4 8 6 3 6 7 7 8 7 8 10 10 10 10 9 8 6 6 7 7 7 8 8 10 14 18 21 26 30 34 38 39 39 39 40 40 40 43 46 46 45 43 43 45 46 46 45 45 45 45 44 43 42 42 43 43 43 43 43 44
6 8 7 7 7 6 1 2 1 3 6 5 3 6 2 3 2 3 3 2 4 8 6 7 15 10 4 7 6 7 9 8 8 9 8 8 8 9 10 9 9 9 7 7 7 6 6 7 8 10 15 20 24 28 32 35 36 36 37 39 39 39 41 45 46 44 43 43 44 45 46 47 47 48 47 45 43 42 41 41 42 42 42 42 42 42
2 5 8 6 5 5 3 2 3 4 3 5 3 3 3 1 2 2 3 3 6 9 5 7 16 12 6 7 6 6 7 7 8 7 7 9 7 7 9 9 9 7 6 6 6 5 6 7 7 9 13 19 24 27 29 30 30 32 35 37 38 41 43 42 40 40 41 42 44 45 47 48 48 47 46 44 42 41 42 43 42 41 41 41 41 41
0 3 7 3 2 4 4 1 4 3 2 1 1 1 0 3 4 3 3 3 5 9 7 8 10 8 6 6 6 8 7 7 6 4 6 8 7 7 7 7 8 6 6 6 5 6 7 8 8 11 16 19 22 24 24 25 29 33 34 34 36 39 38 38 39 41 42 43 44 44 45 46 47 47 46 43 42 42 43 43 42 41 41 40 41 41
0 4 6 3 3 3 2 3 5 3 1 1 3 4 3 2 1 1 2 2 4 7 7 8 8 7 6 4 6 9 7 8 5 2 5 7 6 7 6 4 6 6 6 7 6 7 8 8 9 13 17 18 18 21 23 27 30 32 33 35 38 37 36 38 41 43 44 45 45 44 44 46 46 45 44 42 42 43 42 42 41 41 41 41 41 42
1 2 3 3 4 6 6 5 5 5 4 4 5 5 5 6 4 5 6 5 4 5 6 7 7 6 6 6 6 7 8 8 6 4 6 7 7 7 6 4 6 6 7 8 7 8 8 8 8 10 12 14 17 20 25 27 29 30 34 38 38 37 38 40 42 44 46 46 45 46 47 45 43 42 42 42 42 42 42 42 42 41 41 41 42 42
3 2 3 5 6 7 11 10 6 7 7 6 5 5 6 6 5 6 8 6 4 5 5 7 9 6 7 13 14 10 9 9 8 9 8 7 8 7 7 6 6 6 8 8 7 8 8 7 6 6 8 12 16 20 22 25 29 32 36 37 36 37 42 44 45 46 45 43 44 46 46 43 41 41 42 42 43 43 43 42 42 42 42 42 42 42
4 3 4 6 5 5 11 14 11 7 6 5 6 6 7 7 7 8 7 4 5 6 6 8 11 7 8 16 17 12 12 10 8 9 7 6 8 6 7 8 7 7 9 8 7 5 5 5 4 4 6 9 14 19 22 25 29 32 34 35 36 40 45 46 45 44 42 42 44 43 42 41 40 40 41 43 44 44 43 43 42 42 42 42 42 42
3 3 3 5 5 5 6 8 10 7 5 5 5 6 9 11 11 8 4 2 5 10 11 12 11 7 8 13 13 14 17 15 14 11 7 6 8 7 7 8 7 8 9 9 9 6 5 5 5 6 6 8 13 19 22 25 28 31 34 37 39 43 46 45 43 41 41 42 41 39 39 40 40 41 42 44 44 44 43 42 42 42 42 42 42 42
4 4 4 6 8 9 8 7 8 6 3 3 4 6 9 11 12 10 6 5 8 11 14 13 11 10 10 12 13 18 22 22 22 16 7 5 7 7 7 7 8 9 10 12 11 8 6 6 6 7 8 9 13 17 21 25 29 32 34 37 41 44 44 43 41 40 40 39 38 38 39 40 40 42 44 45 44 43 43 42 42 42 42 42 42 41
2 4 8 12 13 12 13 12 8 4 3 5 6 9 10 8 9 8 6 8 10 11 12 12 13 15 13 12 16 20 22 23 23 17 9 6 8 8 8 8 8 8 10 11 10 9 9 8 8 9 9 9 13 18 21 25 28 31 33 37 42 44 42 39 38 38 39 39 38 39 40 41 44 46 46 45 44 43 42 42 42 42 42 42 42 42
2 5 12 17 19 18 18 19 17 13 12 14 15 16 16 12 10 9 10 12 10 10 12 13 15 17 14 13 18 22 22 22 21 18 13 10 11 11 12 11 9 11 11 9 8 10 10 10 10 10 10 10 14 19 23 25 28 31 32 35 39 40 39 37 37 38 39 39 38 39 42 44 46 45 44 43 41 40 40 41 41 41 41 42 42 43
3 7 12 16 20 21 21 23 23 20 19 18 18 19 19 18 17 16 18 18 14 13 16 15 17 20 16 15 19 21 21 20 19 18 17 17 17 16 16 15 14 16 16 11 10 11 11 11 12 11 11 12 13 17 21 24 28 30 31 35 35 35 37 37 36 37 38 37 38 42 44 43 42 40 39 39 39 39 40 41 41 41 41 42 43 44
3 7 12 16 19 20 20 21 22 22 21 20 20 20 20 21 23 23 22 22 21 21 21 20 23 24 19 18 20 19 18 18 17 18 20 21 22 22 21 19 17 18 17 14 13 12 11 13 13 13 14 13 12 15 18 22 27 29 33 36 35 34 36 37 36 37 36 37 41 43 41 38 37 37 38 39 39 40 40 40 40 41 41 42 43 43
3 6 10 14 14 14 17 19 20 21 22 22 22 21 21 22 24 23 22 20 21 23 24 24 24 21 18 20 23 21 19 17 17 19 21 22 24 24 21 17 15 15 15 15 15 14 12 13 13 14 15 15 15 17 18 22 27 30 31 33 33 35 36 36 36 36 36 40 42 40 36 35 37 38 38 39 40 40 40 40 40 41 41 41 42 42
3 3 6 9 9 9 12 16 19 19 20 21 21 21 23 24 22 21 20 20 20 20 22 22 19 16 16 20 21 20 19 18 18 21 20 19 17 16 13 13 13 14 15 16 16 17 16 15 14 14 15 15 16 19 21 26 27 26 28 31 35 35 33 33 35 35 37 39 37 34 34 36 36 37 38 38 38 39 39 39 39 40 40 41 41 42
4 5 5 6 7 7 9 13 15 14 13 13 15 21 26 25 22 21 20 20 20 18 17 16 13 10 10 10 11 13 14 13 14 14 10 10 12 13 12 12 12 13 14 15 16 17 17 16 15 14 15 16 19 24 30 32 28 26 30 33 33 30 30 32 34 35 35 35 33 33 35 36 35 36 37 37 38 38 38 38 39 40 41 40 40 41
7 8 7 6 7 8 10 12 11 10 10 7 7 16 23 25 25 23 21 21 19 14 10 7 6 10 13 14 13 14 15 14 12 8 9 10 11 12 13 13 12 13 14 14 15 15 15 15 15 17 19 22 25 30 36 35 30 31 33 30 25 25 28 31 32 32 32 32 32 33 34 35 36 36 36 36 36 37 38 39 39 39 39 39 39 40
10 10 9 7 8 9 10 11 10 9 8 4 3 5 12 18 19 19 20 17 10 10 11 12 14 15 15 14 13 13 16 18 11 6 12 13 12 13 15 15 15 15 15 14 15 16 15 15 15 17 22 27 30 30 32 31 28 29 29 24 22 25 29 29 29 30 30 29 30 32 33 35 35 35 34 35 36 37 38 38 38 38 38 39 40 41
11 11 8 6 7 8 7 9 12 9 5 2 3 9 9 7 9 11 10 5 10 12 10 11 13 14 14 15 14 14 18 18 7 4 12 17 15 14 14 15 16 16 14 14 15 15 15 16 16 18 22 29 32 29 27 27 25 23 22 20 21 23 25 26 26 27 27 28 30 32 34 35 35 34 35 36 36 37 37 38 38 38 38 38 38 38
10 9 7 6 7 7 9 11 12 13 10 4 2 7 8 5 7 8 4 3 11 11 9 10 13 14 14 14 13 15 18 14 6 3 13 19 17 16 15 14 15 15 14 15 17 19 21 22 23 25 28 30 32 29 27 27 23 18 16 16 15 17 18 20 22 23 25 27 29 31 33 34 34 34 35 36 37 37 37 36 36 36 37 37 36 36
3 5 4 5 4 4 9 10 8 11 8 2 4 6 4 4 7 7 6 2 8 12 10 11 13 14 15 14 14 15 14 11 8 8 14 18 18 17 17 16 15 15 15 16 18 23 26 28 29 31 31 31 31 31 29 27 21 12 8 8 10 12 14 17 20 22 24 27 29 31 32 33 34 35 35 36 37 36 35 35 35 36 37 38 37 36
4 2 2 4 4 5 9 9 7 7 2 4 9 9 6 10 10 5 5 3 7 10 8 10 12 12 12 13 13 13 12 10 9 9 13 17 16 15 17 18 17 18 20 21 21 21 25 29 30 33 33 30 32 34 31 24 17 9 4 3 5 8 12 16 21 23 25 27 27 29 31 32 33 33 34 35 35 35 35 34 34 35 35 36 35 34
5 3 2 4 6 7 9 8 7 4 1 5 11 8 9 12 8 2 4 1 7 7 5 8 10 9 9 9 10 10 8 8 10 12 14 14 13 13 15 16 17 18 21 25 27 26 27 28 27 28 28 29 33 37 34 25 16 9 5 4 4 8 14 17 19 19 21 23 25 27 30 31 32 34 34 35 34 33 34 34 33 34 34 34 33 33
2 2 2 4 5 7 8 8 7 3 2 5 10 10 12 11 3 0 5 4 5 4 4 6 7 6 6 6 6 6 6 6 9 14 15 14 14 14 14 15 18 20 21 24 29 30 28 27 26 25 26 29 35 39 37 29 21 15 10 5 6 13 17 16 15 16 18 20 23 26 29 31 33 34 34 34 33 32 33 34 35 36 36 35 33 33
2 2 3 3 4 5 4 5 7 5 1 7 11 9 8 6 1 3 3 2 2 4 3 4 4 4 5 5 5 5 7 8 10 13 14 14 15 16 16 16 18 21 22 24 26 28 27 26 27 27 28 31 35 39 38 31 23 21 16 9 13 20 18 14 13 15 17 19 21 24 28 30 31 32 32 32 33 33 32 33 34 35 36 35 33 33
2 3 5 4 3 5 5 6 8 6 3 10 12 8 4 2 4 5 2 2 3 3 2 3 3 4 5 6 7 7 9 9 10 11 13 13 14 15 16 16 16 18 21 23 24 27 26 24 25 26 28 31 34 38 38 29 23 22 17 14 21 22 16 12 13 14 16 20 22 24 27 28 29 30 31 32 33 34 33 32 33 34 35 34 33 31
2 2 5 4 3 4 5 6 5 5 6 7 6 4 1 2 3 2 2 3 3 2 2 4 4 5 6 7 9 9 9 10 10 10 12 13 13 13 14 15 15 16 20 22 25 29 28 24 24 27 30 31 31 34 36 29 23 21 18 21 27 24 16 14 13 13 16 19 22 24 27 28 29 30 31 31 32 32 31 31 32 33 33 33 32 30
3 4 5 4 3 4 5 7 8 8 9 8 5 3 5 5 3 3 3 3 3 3 3 3 5 7 7 7 9 10 9 10 10 10 11 12 13 13 14 14 16 17 20 23 27 30 29 27 27 28 29 30 29 29 32 30 24 20 21 27 30 25 19 17 14 14 16 18 21 23 26 27 29 31 32 33 34 33 32 32 32 31 32 33 32 30
5 6 6 4 4 6 7 9 9 8 10 11 8 3 5 5 4 4 3 3 4 4 3 4 6 8 7 7 8 8 9 10 11 11 11 11 12 13 13 14 16 18 20 23 26 29 30 29 29 28 27 30 31 28 29 31 26 23 27 32 31 25 22 19 17 17 18 19 20 22 24 26 27 29 31 33 35 35 34 35 34 32 31 31 31 30
5 6 5 4 5 6 7 8 8 8 11 12 9 4 4 4 4 4 4 4 4 4 5 5 6 7 7 6 7 7 9 11 11 12 12 11 12 14 13 13 15 16 19 21 24 28 29 26 25 24 26 30 32 30 29 31 30 29 32 35 32 28 24 21 20 20 20 21 21 22 24 26 26 27 28 31 32 32 32 35 35 32 30 30 30 28
3 2 2 5 8 7 8 10 11 11 13 13 10 7 5 5 4 4 5 4 3 4 5 5 5 6 6 6 6 7 10 11 11 11 12 11 12 13 13 13 13 16 20 24 26 27 26 23 22 23 25 28 32 33 31 32 33 32 33 36 35 29 24 23 23 23 22 22 22 23 25 26 27 27 28 29 32 32 33 35 36 35 36 38 39 35
2 1 3 7 7 7 8 11 12 12 12 12 11 8 5 5 4 6 5 3 3 4 5 6 6 6 6 8 7 7 9 12 11 10 11 12 13 13 13 14 15 18 21 24 25 26 25 23 23 24 26 30 34 34 32 31 32 31 31 34 34 28 24 25 25 24 24 23 23 24 25 25 27 28 27 28 30 31 32 34 36 35 35 38 42 42
3 7 8 6 5 7 9 11 10 8 8 9 8 7 6 5 4 5 5 4 3 3 4 7 8 8 8 9 8 7 9 11 12 12 11 12 13 14 15 15 16 19 22 25 27 28 27 25 25 26 29 33 35 32 30 31 34 34 33 33 32 27 25 26 24 23 23 24 24 25 25 25 26 27 26 26 26 26 26 27 29 29 28 29 34 36
7 10 9 6 7 10 12 12 8 5 8 11 7 5 5 3 3 4 4 4 4 4 4 5 8 10 10 10 8 8 9 11 13 13 12 13 14 16 19 18 16 17 22 25 25 24 26 28 29 29 31 34 33 30 31 35 39 38 35 33 32 29 27 27 24 21 22 24 25 26 27 25 25 25 25 24 24 23 22 21 22 23 22 22 24 26
Wind_Direction
154 149 169 200 217 228 224 205 221 239 255 267 262 248 243 252 262 252 260 264 215 244 247 229 247 251 246 249 251 261 268 264 262 259 255 253 254 256 255 257 258 257 259 260 259 253 241 231 224 220 217 214 214 212 209 206 204 203 199 195 194 193 192 190 190 191 191 190 190 192 196 200 203 204 206 209 211 211 212 211 210 210 207 202 201 199
148 185 209 215 219 228 227 213 226 242 253 257 252 263 264 254 265 260 261 272 228 215 257 240 254 259 249 250 249 254 264 264 261 259 256 251 248 251 254 256 256 257 264 269 267 251 233 227 219 214 210 205 205 206 206 205 203 201 197 195 193 190 190 191 191 191 192 194 194 194 197 200 201 203 205 207 209 211 212 212 211 211 208 204 203 201
201 216 224 224 226 241 253 209 222 238 239 244 245 260 266 255 273 270 252 262 244 195 264 257 258 263 255 251 248 247 254 256 255 253 255 253 247 248 248 252 257 259 263 266 267 256 222 218 213 206 203 203 206 205 204 204 200 196 194 194 192 190 190 192 193 193 194 196 197 198 198 199 199 202 206 208 209 210 211 212 212 212 209 205 204 203
227 226 228 229 228 239 256 234 219 259 252 226 226 246 260 252 263 267 246 258 253 205 263 274 268 268 264 259 248 240 247 252 255 254 257 255 245 246 247 250 257 260 260 259 263 260 218 209 206 200 201 203 204 202 199 198 195 193 194 193 191 191 191 192 193 194 195 195 195 197 199 199 199 202 205 207 210 210 210 211 211 212 210 207 206 204
244 231 218 216 206 213 237 240 215 259 267 229 207 219 249 247 242 252 269 306 297 255 259 288 286 275 247 249 251 236 242 252 256 257 262 258 246 247 252 255 255 257 259 257 260 258 214 202 203 200 202 200 198 198 197 196 195 194 194 193 191 191 191 192 192 192 192 191 189 190 191 193 197 199 200 203 207 208 208 209 210 211 210 207 206 205
253 227 177 186 200 209 222 233 205 205 257 255 202 208 238 248 248 257 280 316 308 278 268 288 291 284 209 219 245 237 238 250 252 252 257 258 254 252 254 255 252 253 257 257 260 256 217 201 202 201 200 196 198 200 199 197 195 194 192 191 191 190 190 191 191 190 190 188 187 185 184 186 190 193 197 202 204 204 205 208 209 209 210 208 207 206
247 209 190 194 201 204 210 232 209 191 243 272 214 207 233 247 254 256 267 285 265 266 280 118 265 285 259 213 236 233 230 244 249 250 252 253 254 251 250 253 252 252 254 254 257 250 217 201 193 197 199 197 200 201 198 195 193 192 191 190 190 190 190 190 190 190 190 188 188 189 190 191 193 197 203 206 206 204 204 206 208 209 210 209 207 206
190 196 208 210 203 194 198 229 216 183 215 268 207 191 216 235 248 233 218 231 230 281 289 146 151 274 281 250 201 214 222 233 244 246 248 250 249 248 248 252 254 253 252 251 253 241 215 201 192 198 201 198 199 197 192 192 191 192 190 189 190 189 190 190 190 190 191 191 191 193 196 198 201 204 208 207 206 206 205 205 208 209 209 209 209 208
143 191 218 205 197 198 205 221 200 167 204 253 148 154 177 200 223 167 164 218 273 336 290 196 139 252 282 266 168 204 216 217 235 238 243 246 244 245 246 252 256 259 257 245 241 235 210 201 201 202 198 194 195 193 191 192 190 189 189 188 188 189 190 190 191 192 193 195 196 196 198 202 205 208 209 208 206 206 205 205 207 208 209 209 210 210
138 198 199 171 183 218 224 225 182 170 206 232 116 107 73 85 81 97 138 143 48 307 267 196 148 211 283 287 123 177 209 212 227 230 240 244 244 249 251 257 258 262 264 247 233 234 208 202 204 196 189 188 191 192 191 189 187 186 187 187 188 189 190 191 192 194 195 197 198 199 201 203 205 206 207 207 205 205 205 205 206 207 208 208 209 210
243 78 127 170 197 207 200 197 180 184 205 102 97 55 23 15 25 53 32 74 52 280 244 176 171 176 276 292 118 175 217 223 228 227 244 250 252 256 255 259 258 259 266 253 214 205 179 180 186 181 179 182 186 188 187 186 185 185 186 186 189 190 191 192 194 195 197 199 201 203 204 205 204 203 203 203 203 204 205 205 206 206 207 208 208 208
260 247 214 221 189 140 128 164 281 304 140 93 114 77 13 329 3 27 352 57 206 263 224 177 177 175 234 262 138 250 259 233 215 221 238 244 251 256 253 254 254 258 265 242 179 165 147 149 167 172 174 177 180 182 183 184 184 185 187 187 189 192 193 194 195 198 199 201 203 205 206 206 206 204 204 204 204 204 205 205 205 205 206 207 207 207
279 234 221 231 186 158 161 208 313 354 81 125 123 131 289 303 337 349 314 135 220 257 233 185 177 198 242 257 276 276 275 256 223 217 231 238 245 253 255 256 256 264 262 209 181 171 168 174 175 176 176 177 181 182 181 183 184 186 188 189 191 193 195 196 198 200 201 203 206 207 208 208 207 207 207 207 207 207 207 206 205 204 204 205 206 207
289 267 202 145 265 193 164 185 243 277 186 167 156 158 171 213 251 252 265 269 256 264 257 187 167 238 278 279 234 241 260 265 240 223 235 242 251 259 266 273 272 277 264 192 187 186 189 192 186 184 183 181 183 183 183 184 186 187 189 192 194 196 197 199 200 202 203 207 208 209 210 209 209 209 210 211 211 210 209 207 207 207 206 206 207 207
264 289 198 154 231 191 177 206 215 187 171 191 167 144 180 193 187 199 222 250 258 276 297 220 174 227 271 266 228 228 256 278 270 251 246 247 253 256 263 270 272 284 289 207 200 206 206 197 188 187 187 186 186 184 185 186 187 189 192 194 196 197 199 200 202 204 206 209 209 210 211 211 211 212 213 214 214 213 212 211 210 210 209 209 209 209
230 274 252 179 183 165 183 219 212 147 76 234 135 118 224 207 172 212 241 240 247 306 300 240 216 235 250 262 253 255 283 279 267 265 258 252 255 253 257 261 265 279 277 232 220 222 216 196 186 191 190 190 189 187 189 190 191 193 195 196 198 200 200 201 204 206 208 209 209 210 211 212 213 213 214 215 215 215 215 214 213 213 212 212 211 210
242 269 269 236 219 190 190 200 185 163 188 218 132 173 231 160 149 221 261 266 265 266 262 253 258 275 306 287 276 341 324 297 289 294 286 276 277 277 273 269 270 270 253 232 231 227 215 198 193 196 193 190 191 192 195 196 197 197 197 198 200 201 201 204 206 208 208 208 209 210 212 212 213 214 215 216 216 215 215 215 215 215 214 213 212 211
255 268 260 250 257 261 246 108 193 207 160 135 180 213 197 65 127 188 244 295 263 254 260 266 268 279 307 285 302 349 327 308 312 317 312 304 296 284 274 269 269 266 252 247 249 243 230 214 203 200 199 198 197 198 201 202 202 201 201 201 201 201 204 206 207 208 208 208 209 211 212 213 214 215 216 217 216 215 215 215 216 215 214 213 212 211
286 275 268 271 280 305 5 58 286 282 171 147 200 211 124 165 228 175 185 213 236 248 250 250 263 274 260 253 284 301 282 278 293 318 333 330 328 309 294 291 286 271 253 249 243 245 244 230 219 208 207 208 207 208 207 206 204 205 207 207 206 207 208 208 208 209 210 210 211 213 214 214 215 216 217 216 216 215 215 216 215 214 214 213 212 211
31 262 260 282 345 339 4 182 222 264 300 352 298 302 102 195 191 183 191 171 216 246 253 243 252 268 255 228 241 252 233 235 272 337 346 324 336 335 313 302 297 283 267 260 239 235 235 231 228 217 213 212 212 214 213 208 207 208 210 210 211 212 211 209 210 211 212 213 214 215 215 216 216 216 216 216 215 216 216 217 215 214 214 212 212 211
186 268 262 296 329 307 289 219 198 196 209 239 247 254 261 242 216 253 233 158 200 240 252 251 247 258 268 227 223 248 231 214 236 337 309 292 315 327 316 284 274 272 268 262 250 244 238 233 234 224 221 218 214 216 215 211 210 210 211 212 214 214 212 211 212 211 213 214 215 216 217 217 217 216 215 215 215 216 217 217 216 215 214 212 212 211
139 272 273 306 293 273 270 240 189 198 220 208 217 232 232 230 244 269 251 210 203 232 244 257 256 252 272 266 233 232 225 222 230 240 261 266 266 286 304 276 247 250 251 244 236 239 237 235 239 230 221 216 213 215 214 212 211 211 213 215 214 214 214 214 214 213 214 214 214 216 217 217 217 215 214 214 215 216 216 217 216 215 213 212 212 211
141 155 227 254 251 261 282 280 235 223 239 239 231 230 232 226 216 235 245 233 229 244 240 256 257 233 244 260 256 245 242 249 249 236 241 258 259 273 296 284 257 248 251 244 232 233 235 241 251 237 218 215 217 219 215 212 212 213 216 216 215 216 217 217 216 215 215 213 214 216 216 216 216 214 213 213 214 215 215 216 215 214 213 212 211 210
140 136 217 245 248 253 272 282 272 234 212 243 246 220 224 231 224 230 242 243 246 247 239 253 255 225 220 251 262 274 275 270 259 243 232 256 276 286 281 274 265 255 259 262 255 247 244 245 241 225 218 219 222 223 219 216 215 217 218 217 216 219 220 219 218 217 215 214 216 216 215 215 214 213 212 213 214 214 214 214 214 213 213 211 210 208
217 186 204 241 263 259 254 270 272 241 194 220 228 212 222 230 236 247 254 240 241 238 236 249 256 237 230 252 269 285 282 272 261 249 223 236 270 281 277 280 279 269 271 272 268 263 252 239 227 226 226 221 221 222 222 222 220 219 219 217 217 220 222 221 218 216 215 215 215 214 213 214 213 212 213 213 213 213 213 212 212 211 211 209 208 206
239 203 189 232 245 250 246 239 245 238 205 213 210 215 226 223 228 245 255 249 244 236 234 243 257 253 250 263 273 275 274 272 269 265 252 243 259 267 274 282 282 278 277 276 279 287 280 262 240 235 234 230 230 229 227 226 225 223 222 221 220 221 222 220 217 216 215 214 214 213 213 212 211 213 214 213 213 212 211 210 209 209 208 206 205 203
260 210 211 232 236 241 248 246 245 242 233 245 247 244 243 227 217 228 240 241 246 250 245 244 257 262 260 265 269 267 269 272 274 276 278 271 269 270 270 268 269 270 270 278 294 302 292 278 255 243 239 239 243 242 237 232 229 226 224 223 223 223 222 219 215 214 213 213 213 212 212 212 212 214 214 213 212 211 209 208 207 206 205 204 203 201
246 234 227 237 240 242 248 253 255 254 251 253 257 258 256 245 227 224 235 239 245 261 256 246 255 264 263 260 262 264 267 270 276 284 285 277 273 272 271 270 267 265 268 277 287 279 269 261 253 247 245 245 246 247 245 240 236 232 229 230 228 223 220 217 213 211 212 212 212 213 213 214 214 214 213 212 211 209 207 206 205 204 203 202 201 200
208 238 237 242 245 244 245 249 251 251 253 252 252 255 255 251 246 243 245 246 243 248 253 251 253 257 256 252 254 260 266 270 278 285 286 284 281 278 277 277 277 276 277 275 263 256 249 245 248 246 245 244 242 245 245 241 238 235 233 236 234 226 220 215 211 210 211 211 212 214 215 215 214 213 211 210 208 206 205 204 203 202 201 201 200 200
207 233 236 241 248 246 241 243 245 246 251 252 249 248 249 251 251 249 251 252 250 251 256 257 255 256 257 255 255 258 264 270 276 279 281 283 283 282 282 284 284 285 287 284 272 263 252 247 250 252 252 251 245 245 243 237 235 233 232 234 232 226 221 214 209 210 209 210 215 216 215 213 210 209 208 207 206 205 203 202 200 199 199 199 199 199
254 247 248 252 255 249 242 243 242 239 242 246 247 247 248 250 251 251 253 254 254 256 257 257 257 259 258 256 256 256 259 266 272 276 277 278 280 285 295 305 314 315 318 319 312 304 292 275 265 260 259 257 252 246 238 234 235 235 234 233 230 226 221 213 209 210 210 213 216 215 211 209 207 206 205 205 204 202 200 199 198 197 197 197 197 197
284 277 278 274 267 256 246 246 248 246 243 243 245 245 245 244 244 245 245 245 247 252 256 258 259 258 259 261 261 264 269 270 272 275 279 286 300 316 337 354 358 352 347 344 340 337 328 313 295 277 266 259 257 256 249 245 243 238 233 232 230 227 220 212 209 210 212 215 215 211 207 206 204 202 202 202 201 199 198 196 195 195 195 195 195 195
249 264 281 272 268 269 258 256 262 261 249 239 237 238 240 243 244 244 245 247 247 248 254 258 261 276 304 323 327 321 317 308 297 299 311 333 352 6 13 12 5 357 351 344 341 342 339 334 324 304 288 273 264 264 262 258 251 241 236 235 232 225 214 209 210 211 213 214 211 207 205 203 200 199 200 199 198 197 195 194 194 194 194 194 194 194
247 255 265 265 270 278 277 281 283 269 257 251 224 227 236 242 245 247 250 253 255 264 282 296 331 3 12 14 6 351 339 326 323 353 36 33 16 6 359 359 357 351 347 342 338 338 337 338 336 328 320 305 285 274 272 269 260 250 246 241 232 219 210 208 209 210 212 211 208 206 203 200 199 198 198 196 195 194 193 193 194 194 193 193 192 193
256 260 262 261 266 272 278 282 274 259 261 261 198 225 247 248 254 262 261 262 289 338 1 17 22 21 16 6 360 355 338 324 323 38 51 33 16 1 351 348 347 343 340 337 334 332 330 334 336 334 332 325 312 297 288 283 276 266 258 245 227 215 209 206 207 209 210 208 205 204 200 198 197 195 194 193 192 192 192 193 193 192 192 192 192 194
245 258 259 252 261 270 270 262 259 266 273 206 87 27 359 330 333 323 289 302 19 14 12 25 23 16 11 2 358 354 339 325 310 87 42 20 9 358 347 340 337 335 331 329 328 325 323 325 328 328 330 332 330 322 310 301 294 282 268 251 230 217 208 205 206 208 207 205 203 202 200 197 195 193 191 190 189 191 192 192 192 191 191 191 192 194
232 246 260 259 248 252 260 257 263 276 277 250 43 17 16 4 340 324 280 54 33 10 3 23 21 13 9 2 356 350 340 331 316 9 16 7 356 348 342 333 328 326 323 322 321 319 318 320 325 330 331 333 336 335 330 323 310 284 260 247 232 218 208 204 206 208 206 205 203 201 200 197 194 191 190 189 189 190 191 191 190 190 189 189 190 192
231 233 260 276 255 265 278 275 277 279 275 312 325 312 343 319 289 272 230 165 29 8 5 20 18 10 4 358 355 351 344 342 339 341 353 351 344 341 336 330 328 326 324 323 322 323 324 325 328 331 331 333 335 337 341 338 325 297 257 236 223 213 205 205 210 210 206 206 205 201 199 198 195 193 190 189 190 190 189 189 189 190 190 189 190 191
341 265 252 279 279 294 288 280 287 280 266 18 324 306 325 316 304 288 216 172 34 4 355 18 19 10 2 353 352 356 352 345 333 326 337 338 335 335 333 328 328 327 323 323 323 323 323 325 328 330 332 334 333 334 340 340 333 331 326 279 236 214 212 216 217 213 209 208 205 201 199 198 196 195 192 191 191 190 189 188 188 188 190 190 190 191
353 338 312 283 277 287 282 274 283 277 101 1 328 318 317 308 309 311 248 249 35 2 350 19 12 2 3 353 349 358 353 333 317 315 322 325 321 325 325 320 321 323 321 322 324 324 324 325 329 331 331 331 330 331 332 330 329 334 326 292 251 231 235 236 230 222 216 211 205 201 200 198 197 197 195 193 192 189 188 187 186 185 187 188 189 189
322 304 274 255 263 277 274 273 282 257 116 7 338 328 326 326 350 343 284 325 17 345 350 19 0 350 358 345 339 341 319 298 296 300 307 313 314 317 317 313 314 315 315 318 321 324 325 325 326 327 325 326 330 330 327 324 322 319 314 306 271 260 259 255 244 232 222 214 207 203 200 198 198 198 197 194 190 186 186 186 186 185 185 185 186 186
274 267 251 244 267 278 267 279 286 263 107 19 352 336 347 0 339 279 299 340 331 314 345 8 336 324 324 311 308 301 288 287 289 292 301 311 313 314 316 317 317 316 316 319 321 323 324 322 323 325 323 325 330 329 326 322 314 310 314 306 284 282 281 271 251 235 223 214 209 204 201 200 200 198 195 192 187 184 184 185 185 185 183 183 184 184
307 300 282 262 268 280 268 268 271 264 326 1 349 343 23 64 262 276 282 216 248 281 308 307 299 302 303 301 299 294 292 296 296 298 306 310 312 316 317 319 320 319 320 321 321 323 325 321 320 322 321 323 326 325 323 319 307 304 309 295 288 295 296 276 254 236 222 213 207 204 201 200 199 197 193 190 187 184 182 181 182 183 182 182 182 181
283 262 267 263 270 274 259 254 269 294 322 340 341 331 307 228 236 243 221 225 230 222 250 276 288 290 292 300 303 303 303 301 301 308 312 311 314 317 315 317 320 319 319 319 320 323 325 321 318 318 316 317 319 318 318 314 302 299 299 291 292 297 293 276 259 236 223 214 205 203 201 198 197 196 192 189 186 182 180 180 180 181 182 183 181 180
227 214 246 264 265 250 246 262 288 308 313 313 312 266 228 213 195 175 185 222 238 235 246 271 290 295 299 303 304 304 303 304 310 315 313 310 312 313 313 316 317 316 316 317 318 322 323 320 317 315 313 314 316 315 314 310 300 290 289 292 293 293 285 275 257 237 229 219 210 205 200 197 196 194 192 189 186 183 181 180 179 180 182 183 183 183
251 260 266 268 266 264 261 264 280 298 298 298 304 273 202 192 184 174 180 225 253 259 264 267 278 291 301 305 305 304 305 309 313 311 307 307 307 308 310 311 312 314 316 316 317 320 321 319 317 316 315 314 315 315 312 307 298 285 285 291 291 287 283 273 254 242 234 224 217 210 201 196 194 193 192 190 188 187 185 182 182 182 184 185 186 186
256 244 243 255 265 270 265 266 275 283 282 287 295 279 229 208 195 188 201 234 252 265 277 278 280 288 297 301 301 299 301 307 310 309 309 309 305 305 307 307 308 311 311 310 313 316 317 316 315 315 314 311 312 314 312 306 298 291 290 292 289 282 275 264 249 241 234 225 220 211 202 198 195 192 192 191 189 189 188 186 186 186 186 188 189 189
253 182 191 242 248 247 258 272 276 272 272 279 282 269 232 200 204 227 231 230 251 278 282 284 291 298 301 300 300 302 301 301 302 305 308 308 304 304 305 303 304 306 306 306 310 313 315 313 310 311 310 307 309 312 310 304 300 296 293 292 287 278 265 252 242 235 231 226 220 211 206 203 198 193 193 194 192 191 190 189 190 191 192 194 193 191
267 294 246 245 253 265 272 274 275 275 275 274 266 250 206 177 212 254 254 234 260 294 295 297 300 303 303 300 302 304 299 296 298 303 304 302 300 300 301 303 304 303 301 304 309 312 311 307 305 307 305 302 305 309 307 305 305 304 300 297 290 277 257 246 239 232 227 223 217 212 208 205 202 199 197 197 198 198 197 196 195 198 202 203 200 197
234 255 252 247 259 267 261 257 258 265 273 273 258 228 202 191 216 253 263 260 267 283 296 301 302 300 296 294 297 301 296 294 298 303 301 295 294 296 299 303 305 302 302 307 312 312 309 306 306 306 302 300 302 304 304 306 307 306 305 304 298 281 258 245 238 231 225 219 214 211 207 204 205 204 201 200 201 202 203 204 203 205 210 212 211 210
220 238 244 242 243 248 253 255 247 229 258 273 263 206 207 258 275 255 252 265 275 276 280 291 294 296 294 290 287 289 291 293 295 299 297 291 290 292 297 299 299 298 302 307 311 311 309 308 307 303 300 300 302 303 302 302 300 298 299 301 299 286 265 248 237 230 224 219 214 211 207 204 204 203 202 202 202 199 201 204 208 212 216 217 216 215
Height
803 810 815 809 803 798 797 801 799 793 796 801 803 805 804 804 799 790 784 777 778 782 776 774 770 763 761 757 751 747 744 745 744 743 742 740 737 734 731 727 723 720 711 704 706 707 709 710 712 715 717 721 723 726 728 730 732 734 737 740 744 748 753 756 760 764 767 770 773 776 778 778 780 782 784 785 787 788 790 792 794 795 797 798 799 800
805 810 809 798 790 790 792 795 796 797 800 801 804 805 804 805 796 784 782 777 777 783 774 768 768 760 756 753 748 747 745 741 738 738 735 732 733 730 727 723 717 714 707 702 702 702 705 706 708 711 713 716 718 720 722 723 725 729 732 735 739 743 747 750 754 757 761 763 765 768 770 773 776 778 780 781 783 785 787 790 791 792 794 796 797 798
809 809 801 792 789 791 793 794 797 799 801 803 806 808 806 803 793 782 780 775 777 782 773 767 766 755 750 748 745 745 741 734 731 730 727 725 728 726 722 719 713 710 706 701 697 697 702 703 705 707 709 710 711 713 716 718 722 726 729 732 735 739 742 745 749 752 755 759 762 765 767 770 773 776 778 780 781 783 785 787 789 790 792 793 794 796
806 801 793 790 793 796 796 795 797 800 802 804 805 809 805 799 795 785 776 772 775 779 772 769 765 752 747 745 742 741 734 727 727 725 723 722 723 720 715 712 710 706 702 698 694 694 699 701 702 704 704 705 708 710 713 716 719 722 724 727 731 734 738 742 745 749 753 758 762 765 768 771 773 775 777 780 781 782 783 784 786 787 789 791 792 793
789 787 786 789 793 795 796 796 798 802 800 796 800 805 797 790 791 785 778 774 775 775 771 772 764 744 740 742 736 734 730 726 726 725 722 720 717 714 711 708 705 700 695 693 690 691 696 699 699 700 701 703 706 707 708 710 713 716 719 724 728 732 735 739 743 748 752 756 760 764 768 772 773 775 777 777 777 777 779 780 781 783 785 788 789 791
784 782 784 788 792 794 796 796 798 801 794 787 791 793 783 780 784 783 783 784 784 780 773 776 770 738 723 733 732 728 730 727 725 725 720 715 711 710 708 703 699 695 691 689 687 688 692 695 697 698 700 701 702 702 703 706 710 713 718 722 727 731 734 738 742 746 749 752 756 759 763 766 768 770 769 767 767 769 772 774 777 780 783 785 787 788
782 779 779 784 787 789 796 798 794 794 792 784 781 778 775 779 784 784 787 790 789 784 776 778 779 752 723 726 731 727 728 726 723 723 717 710 707 705 703 696 692 691 687 686 685 686 689 691 694 696 696 697 697 699 703 707 710 713 717 721 725 729 732 737 740 744 747 749 753 755 757 759 761 762 761 761 764 767 770 773 776 779 781 783 785 786
776 778 779 780 784 789 797 794 785 788 791 782 773 771 771 775 780 784 788 791 788 783 780 776 780 774 739 719 723 721 723 724 720 716 710 704 703 701 697 691 687 685 682 682 683 683 686 688 689 690 691 693 695 699 703 706 709 711 715 719 723 727 730 734 738 741 744 746 749 752 754 756 757 758 759 763 766 768 770 773 775 777 778 780 782 784
770 777 779 780 787 791 788 779 775 784 786 774 772 775 775 776 779 782 784 788 792 788 783 776 779 783 746 709 713 719 721 725 717 709 703 698 697 694 690 686 682 680 677 678 679 679 683 685 686 687 689 692 695 697 700 702 706 710 714 718 721 725 728 731 735 738 741 743 745 748 751 753 755 757 761 763 766 768 770 771 773 774 776 778 780 782
772 776 778 780 785 782 774 771 772 777 776 772 776 777 778 780 779 783 782 783 791 786 779 776 777 780 746 707 715 724 722 721 711 703 699 693 691 688 686 683 680 677 673 674 677 679 682 684 685 687 689 692 694 696 699 702 706 710 713 717 720 723 726 729 732 735 738 741 743 745 747 749 752 756 760 762 765 767 768 769 770 772 773 775 777 780
776 778 780 777 774 771 769 775 778 776 774 776 778 775 777 782 781 786 785 783 790 781 771 769 766 774 753 716 717 722 715 713 707 702 698 692 690 686 684 682 678 675 671 673 678 680 683 685 686 688 689 692 694 697 700 702 706 708 711 715 718 721 724 726 730 732 735 738 740 741 743 746 750 753 756 759 761 763 765 766 767 769 771 773 774 776
776 778 776 768 766 768 768 774 781 782 778 776 778 776 779 784 784 790 791 791 794 778 762 757 757 768 752 717 713 712 703 706 705 701 696 690 689 685 680 678 674 673 671 673 677 680 683 685 686 689 690 692 694 696 699 701 704 708 710 713 716 720 722 724 727 729 731 734 735 737 740 743 746 749 751 753 756 758 760 763 765 767 769 771 772 774
771 768 765 763 763 765 765 770 779 780 778 778 780 781 787 793 793 794 794 794 792 773 757 757 761 760 734 707 707 703 694 695 695 695 693 688 685 681 677 675 671 671 671 673 677 679 682 683 684 687 688 690 692 693 696 699 702 705 708 711 713 716 719 722 724 726 728 730 731 733 736 739 742 745 747 749 751 753 756 759 761 763 764 766 768 769
765 757 761 766 763 759 761 768 774 772 772 778 777 778 788 795 798 799 795 792 784 765 756 763 765 752 724 702 698 691 686 687 687 690 690 687 685 681 678 677 673 670 671 674 676 678 679 680 681 684 685 687 689 691 694 696 699 702 705 708 710 713 716 718 720 723 725 726 728 731 734 737 740 741 743 745 747 749 751 754 755 756 758 759 761 762
772 760 757 760 756 756 757 755 756 757 764 772 767 768 776 778 782 786 781 775 766 755 759 770 761 739 719 702 691 686 685 685 685 685 686 685 684 680 678 676 673 671 672 675 676 676 676 677 679 682 683 685 686 689 691 693 696 698 700 703 705 708 711 714 717 719 720 722 725 729 731 734 736 738 740 741 743 745 747 749 751 752 753 754 756 758
778 763 749 752 752 753 753 746 746 754 763 768 764 767 769 762 763 767 762 756 758 759 760 762 749 725 708 696 689 691 688 683 682 681 681 680 677 676 674 671 670 671 673 675 674 674 675 676 678 680 682 684 685 687 689 690 691 693 694 697 699 701 705 709 711 713 714 717 721 724 726 729 731 734 736 737 739 740 742 744 746 747 749 751 753 756
773 761 747 752 752 748 748 745 745 751 758 766 769 765 758 754 755 761 761 754 761 767 752 739 733 719 706 697 689 690 687 679 678 679 680 680 677 677 675 670 670 670 671 672 672 674 675 674 675 677 679 681 683 684 685 685 686 687 690 693 695 698 701 703 705 707 710 714 716 718 720 723 725 727 729 730 733 736 738 741 743 745 747 749 751 753
765 759 745 744 748 749 753 753 748 747 751 760 763 755 751 755 755 761 769 764 764 766 747 729 724 718 717 708 692 688 686 680 677 679 682 680 678 678 675 671 670 670 671 674 674 675 676 674 674 675 677 679 679 680 681 682 684 687 689 691 693 696 696 697 699 703 707 709 711 713 714 717 718 720 723 726 729 733 735 737 739 741 744 746 749 752
765 767 752 742 748 753 755 755 752 750 751 752 752 748 751 758 756 758 767 767 765 762 748 733 723 717 717 708 694 690 688 683 681 679 679 677 674 676 674 671 670 670 671 673 674 676 676 675 674 674 676 677 678 679 680 682 686 687 689 690 692 692 692 695 699 702 704 706 707 708 709 712 714 716 719 722 726 729 730 732 734 737 740 743 746 749
766 773 762 748 752 757 755 754 752 751 752 754 753 753 752 751 749 750 752 753 753 752 745 737 728 716 705 697 692 688 684 684 682 677 676 676 673 672 671 669 670 672 674 674 673 674 674 674 674 673 674 675 676 679 681 683 684 684 687 689 690 691 692 694 696 697 700 702 703 705 707 709 710 712 715 718 722 724 725 728 731 734 736 739 743 746
765 771 768 756 755 757 754 752 750 749 752 757 757 756 755 751 747 747 746 741 742 745 742 739 733 716 697 688 686 682 680 683 680 675 675 675 674 672 669 668 670 672 674 675 674 673 673 673 672 672 673 674 676 678 680 680 680 682 684 685 686 688 690 690 690 692 694 696 699 701 703 704 706 708 711 714 717 719 721 725 727 730 733 735 738 741
767 771 774 770 763 759 752 749 750 750 750 753 755 752 750 748 746 749 747 735 732 735 733 733 733 717 694 684 680 678 678 677 674 674 674 674 675 674 670 668 669 670 670 669 671 672 671 671 671 672 673 674 675 676 676 677 678 679 680 680 682 684 685 685 685 686 687 689 693 694 696 699 702 705 708 710 712 714 717 720 722 726 729 731 734 736
763 772 779 776 768 761 753 748 749 751 749 751 751 746 743 742 742 746 743 732 729 728 724 725 728 715 694 679 673 673 674 672 671 671 672 673 673 672 670 667 667 669 670 667 667 669 670 671 672 672 673 674 674 674 674 674 674 674 674 676 679 679 678 678 678 679 682 685 687 688 691 695 698 700 703 705 707 709 712 715 718 721 724 726 730 733
760 770 773 769 763 759 754 748 745 747 750 751 747 743 741 737 733 734 733 729 730 728 724 726 723 709 691 675 669 672 673 673 672 671 672 673 670 669 669 667 666 666 668 668 668 669 671 671 671 670 670 671 672 672 671 670 669 669 670 672 673 673 671 672 673 676 679 680 681 684 688 691 694 696 698 699 701 703 706 710 713 716 719 723 726 729
756 760 762 764 764 758 754 751 744 741 744 744 739 737 736 732 729 730 730 731 731 726 723 724 716 702 688 677 675 675 672 670 668 668 671 672 669 668 667 667 667 665 664 665 665 666 669 669 668 668 669 668 667 666 666 665 664 664 664 665 665 664 664 667 670 672 675 676 678 681 683 686 689 691 693 694 696 699 702 705 708 711 714 718 721 725
754 753 753 760 760 752 747 743 734 730 734 735 732 729 728 729 729 728 729 732 729 720 714 713 706 695 686 681 681 676 669 665 660 660 667 669 667 666 665 665 666 664 663 660 660 662 664 665 664 663 664 664 661 659 659 660 660 659 659 658 658 657 658 661 664 667 670 672 675 676 678 681 683 685 686 688 691 694 697 700 703 706 709 713 717 721
758 755 749 748 746 739 733 726 721 723 729 731 729 724 723 727 728 728 730 727 720 714 709 704 699 693 689 688 684 675 668 663 657 658 664 666 664 663 663 663 663 663 662 660 660 662 661 661 659 657 658 658 656 655 655 655 655 655 654 652 651 651 653 656 659 662 665 667 669 671 672 674 676 677 679 683 686 690 693 696 698 701 705 708 712 716
761 757 748 743 740 735 729 724 721 723 726 726 725 722 720 722 725 729 727 718 714 716 709 699 696 696 693 690 683 673 668 663 659 659 662 663 662 661 659 660 661 661 660 661 662 662 659 658 656 654 655 654 653 653 652 651 651 650 649 648 646 647 649 651 654 656 658 661 663 665 665 667 669 671 675 679 683 686 689 691 694 697 700 704 707 710
757 752 745 741 737 733 730 726 723 722 721 720 721 719 718 717 719 721 717 710 711 711 701 695 696 694 689 686 680 672 667 664 661 660 658 657 657 657 656 658 659 658 657 660 660 658 657 656 653 652 652 651 650 649 647 647 646 645 645 644 644 644 644 646 648 649 653 656 657 657 659 661 665 669 673 677 679 682 684 687 689 693 696 699 702 706
750 743 736 733 731 728 727 725 724 723 721 718 717 715 714 713 712 710 707 705 705 701 694 693 692 686 682 680 674 668 665 663 661 659 656 655 654 653 654 656 657 656 655 656 655 654 654 652 650 649 647 646 645 643 642 641 639 638 637 635 637 639 638 640 642 644 647 650 649 651 654 658 662 666 669 672 674 677 680 682 685 689 692 695 699 702
751 741 730 728 728 724 720 720 719 720 719 716 713 711 713 712 709 707 706 703 702 697 691 691 692 686 678 671 666 663 662 662 663 660 657 655 653 653 656 660 663 663 662 661 658 655 653 651 650 648 644 642 640 637 636 634 632 631 630 629 631 632 633 635 636 638 641 642 642 646 651 654 657 660 663 666 669 672 675 678 682 685 688 692 696 699
757 748 738 737 732 721 717 718 715 715 718 718 716 712 709 705 702 699 697 694 693 692 690 691 690 682 671 664 662 662 663 665 665 662 658 658 660 666 672 676 677 677 674 671 666 662 658 655 651 648 644 641 637 633 631 628 625 625 624 624 624 625 628 630 631 633 635 636 639 644 647 649 652 655 658 662 665 668 672 675 679 682 685 689 692 696
756 752 746 741 732 720 715 716 716 717 716 713 709 702 696 693 691 689 688 686 684 686 687 687 683 680 681 684 685 683 681 679 675 671 673 678 682 685 687 687 685 683 680 676 671 667 663 659 655 651 646 641 636 631 627 623 621 619 617 617 618 620 624 625 626 628 629 632 636 639 642 645 648 651 654 657 661 665 669 672 675 678 681 685 689 693
750 749 745 739 733 722 715 715 719 716 705 692 686 685 685 684 684 686 685 682 681 686 690 691 693 701 707 709 709 708 704 698 693 691 693 695 694 691 689 688 686 684 681 678 674 669 664 661 657 653 648 643 636 630 625 620 618 615 612 614 615 618 620 621 623 625 626 629 633 635 639 641 644 647 650 654 659 662 665 668 670 674 678 682 686 690
747 744 739 735 732 722 716 720 718 704 690 681 679 684 687 682 683 687 681 682 699 712 711 710 712 717 718 716 716 716 710 702 698 697 697 696 696 695 691 688 686 684 682 678 675 671 666 662 658 653 648 643 637 631 626 621 619 616 614 613 613 613 615 617 620 622 624 627 629 632 635 638 640 644 647 651 655 658 661 664 667 671 674 678 682 685
745 741 734 731 727 720 719 720 708 689 680 681 686 698 705 702 705 707 694 699 725 734 724 721 722 721 722 720 717 715 710 701 695 694 694 695 697 698 695 691 688 686 683 680 676 673 668 664 660 656 651 645 638 632 627 622 619 617 615 615 614 612 613 615 618 619 621 624 626 629 632 634 637 640 644 648 651 654 657 660 662 666 670 674 679 683
740 738 734 728 719 715 714 708 695 682 678 688 704 719 725 724 728 727 715 717 735 736 727 726 725 722 723 721 718 716 711 702 694 690 692 695 698 699 698 695 692 688 684 681 677 673 669 665 661 656 651 645 639 633 627 622 619 615 614 614 615 614 614 615 616 618 620 621 623 626 629 632 635 637 640 643 646 649 652 656 660 663 667 672 676 680
739 737 737 731 720 714 713 709 701 691 693 714 732 732 728 726 727 725 718 720 731 734 729 728 726 724 723 721 720 718 712 707 703 697 696 699 699 698 697 694 691 688 685 681 677 672 667 663 660 656 651 646 640 635 629 624 621 617 614 614 615 615 616 616 615 616 618 619 621 624 627 630 633 635 638 639 642 645 649 653 657 661 664 668 672 676
739 736 737 738 732 725 724 722 713 702 710 733 738 727 721 720 718 714 707 712 731 736 730 728 730 728 727 724 722 720 718 718 713 704 702 704 702 700 698 694 690 687 683 680 678 673 668 664 660 656 652 648 642 637 632 628 624 620 618 617 618 618 617 616 614 614 615 616 619 622 625 629 632 634 636 638 640 643 647 650 654 658 663 667 670 674
740 737 737 741 741 735 731 729 717 707 722 738 731 723 721 714 708 706 698 705 728 735 728 729 732 729 729 729 726 725 727 726 718 708 705 706 704 702 701 697 692 688 683 679 677 673 670 665 661 657 653 649 645 640 636 632 627 623 620 619 620 619 617 616 616 616 617 617 619 621 623 626 630 633 635 636 638 642 645 648 652 656 661 665 669 672
744 743 741 742 744 740 738 737 725 715 727 738 729 721 716 706 707 714 711 714 728 730 727 730 731 729 730 730 728 728 727 725 720 712 706 704 702 700 699 697 694 691 686 682 678 673 670 665 662 659 655 651 648 643 639 635 630 625 622 620 619 617 616 616 617 618 619 619 619 620 621 624 627 630 633 634 636 640 643 646 649 653 657 661 665 669
747 745 743 741 743 742 740 743 737 724 722 729 727 718 714 718 726 728 725 725 728 726 726 728 728 728 728 726 726 726 722 719 717 711 706 704 701 698 696 694 692 688 686 683 680 677 672 666 661 658 654 651 649 645 641 638 633 628 625 623 620 618 617 618 618 618 618 619 619 620 622 625 627 630 632 633 635 637 640 644 647 651 655 659 662 666
746 748 748 744 741 742 743 743 742 732 721 722 726 721 720 729 734 727 723 725 725 724 726 727 725 725 724 722 721 719 716 715 713 708 705 703 700 698 696 693 691 688 684 682 679 677 674 668 661 657 654 651 650 647 643 640 636 631 629 626 623 621 621 620 619 619 618 618 618 620 622 625 627 630 631 632 633 635 638 642 646 649 653 656 660 664
747 749 751 744 738 744 746 737 730 728 723 722 726 726 723 726 726 722 724 726 724 724 725 724 723 722 720 719 716 713 712 710 707 706 705 702 700 699 696 694 692 689 685 682 679 676 673 668 662 657 654 652 650 648 645 642 638 634 631 628 625 624 623 622 621 620 619 618 618 619 620 623 625 627 629 631 633 636 638 641 644 647 651 654 657 661
744 740 743 742 739 742 742 732 722 722 722 720 722 723 721 721 721 723 724 724 723 723 722 721 721 718 716 716 714 711 709 707 705 706 705 702 700 698 695 694 692 689 686 682 679 676 673 669 663 658 653 650 650 649 646 643 640 636 632 629 627 626 624 621 620 620 619 618 619 619 619 621 623 624 626 628 630 632 635 639 642 645 648 651 654 657
737 735 738 740 738 735 732 726 723 723 721 718 719 720 719 720 721 723 723 722 722 721 719 719 719 717 715 715 713 711 710 707 706 706 704 702 699 696 694 693 690 688 686 682 679 677 674 670 665 659 653 649 648 648 646 643 640 636 632 630 629 627 624 622 619 618 618 618 619 619 620 621 622 623 624 625 626 628 631 634 638 642 645 648 651 653
736 736 738 738 738 738 734 725 722 723 721 717 718 719 719 720 721 722 722 721 720 719 719 718 717 716 715 714 713 712 710 708 707 705 703 701 698 694 693 691 688 687 686 684 682 680 676 671 666 659 654 648 645 646 644 641 638 635 631 629 627 626 623 621 619 617 617 617 618 619 619 620 620 622 623 624 625 626 628 631 635 639 643 646 648 650
735 735 738 737 735 735 732 724 720 721 718 715 716 717 717 719 720 720 720 720 719 719 719 718 717 716 715 714 713 712 710 708 707 705 703 700 696 693 691 688 686 685 683 682 682 679 675 671 665 660 655 649 644 644 643 638 635 633 630 627 625 623 621 619 617 616 615 615 616 616 617 617 618 619 621 622 622 622 623 625 628 631 633 635 637 640
734 734 734 733 732 731 728 723 720 720 717 713 712 713 714 717 718 717 717 718 718 718 718 717 717 716 715 713 713 712 710 707 704 703 702 699 694 691 688 685 683 681 679 678 677 676 673 668 663 659 655 648 644 643 640 636 633 631 629 626 623 620 619 616 614 613 612 612 613 613 614 615 616 617 618 619 620 620 620 621 623 626 628 630 631 633
734 733 728 731 737 735 726 719 716 718 715 709 707 709 712 715 717 716 716 716 716 718 718 717 716 714 713 712 711 710 709 705 702 701 700 696 691 688 685 683 680 676 673 672 671 669 667 663 660 656 651 645 643 642 638 634 632 630 628 626 622 619 617 614 612 611 610 609 609 609 610 612 613 614 616 617 618 619 620 622 624 626 629 632 634 637
727 725 722 725 728 722 713 709 711 714 711 705 704 708 711 713 715 715 715 715 716 717 718 718 716 714 711 709 708 708 707 704 700 699 697 694 689 685 682 681 678 674 670 669 667 665 662 659 657 653 647 641 640 638 635 632 629 627 627 626 622 618 615 612 610 608 606 605 605 604 606 608 609 611 613 614 616 618 619 621 624 626 629 631 634 638